Home   Weather   Livermore   Past weeks
Flag for USA

Past Weather in Livermore, California, USA — Yesterday and Last 2 Weeks

Now
64 °F

Clear.


Feels Like: 64 °F
Forecast: 85 / 59 °F
Wind: 7 mph from Northwest

Location: Livermore Municipal Airport

Current Time: Jul 18, 2019 at 4:17:37 am

Latest Report: Jul 18, 2019 at 2:53 am


Visibility: 10 mi

Pressure: 29.87 "Hg

Humidity: 70%

Dew Point: 54 °F

Location of LivermoreLocation

Past Weather in Livermore — Graph

°F

Livermore Temperature Yesterday

Maximum temperature yesterday: 91 °F (at 2:53 pm)
Minimum temperature yesterday: 57 °F (at 3:53 am)
Average temperature yesterday: 72 °F

High & Low Weather Summary for the Past Weeks

 TemperatureHumidityPressure
High91 °F (Jul 13, 4:53 pm)93% (Jul 5, 5:53 am)30.09 "Hg (Jul 5, 5:53 am)
Low54 °F (Jul 3, 3:53 am)22% (Jul 5, 4:53 pm)29.82 "Hg (Jul 12, 5:53 pm)
Average68 °F63%29.94 "Hg
* Reported Jul 3 2:53 am — Jul 18 2:53 am, Livermore. Weather by CustomWeather, © 2019

Note: Actual official high and low records may vary slightly from our data, if they occured in-between our weather recording intervals... More about our weather records

Advertising

Livermore Weather History for the Previous 24 Hours

Scroll right to see more
 ConditionsComfort  
Time TempWeatherWind HumidityBarometerVisibility
2:53 am
Thu, Jul 18
64 °FClear.7 mph70%29.87 "Hg10 mi
1:53 am65 °FClear.3 mph68%29.87 "Hg10 mi
12:53 am66 °FClear.No wind65%29.87 "Hg10 mi
11:53 pm
Wed, Jul 17
68 °FClear.5 mph59%29.87 "Hg10 mi
10:53 pm69 °FClear.5 mph59%29.87 "Hg10 mi
9:53 pm71 °FClear.6 mph57%29.87 "Hg10 mi
8:53 pm73 °FClear.6 mph53%29.86 "Hg10 mi
7:53 pm79 °FSunny.9 mph44%29.85 "Hg10 mi
6:53 pm82 °FSunny.14 mph37%29.84 "Hg10 mi
5:53 pm85 °FSunny.13 mph37%29.84 "Hg10 mi
4:53 pm89 °FSunny.10 mph32%29.84 "Hg10 mi
3:53 pm91 °FSunny.10 mph30%29.84 "Hg10 mi
2:53 pm91 °FSunny.7 mph26%29.84 "Hg10 mi
1:53 pm89 °FSunny.6 mph27%29.85 "Hg10 mi
12:53 pm85 °FSunny.6 mph31%29.87 "Hg10 mi
11:53 am79 °FSunny.6 mph39%29.88 "Hg10 mi
10:53 am74 °FSunny.5 mph48%29.88 "Hg10 mi
9:53 am69 °FSunny.5 mph59%29.89 "Hg10 mi
8:53 am64 °FSunny.No wind70%29.89 "Hg10 mi
7:53 am60 °FSunny.No wind83%29.89 "Hg9 mi
6:53 am59 °FSunny.No wind84%29.88 "Hg8 mi
5:53 am57 °FClear.No wind87%29.86 "Hg9 mi
4:53 am57 °FClear.3 mph87%29.85 "Hg10 mi
Weather by CustomWeather, © 2019

See weather overview